TimeEDT,TemperatureF,Dew PointF,Humidity,Sea Level PressureIn,VisibilityMPH,Wind Direction,Wind SpeedMPH,Gust SpeedMPH,PrecipitationIn,Events,Conditions,WindDirDegrees,DateUTC
12:03 AM,33.8,33.8,100,30.25,1.2,Calm,Calm,-,N/A,,Scattered Clouds,0,2012-09-20 04:03:00
12:21 AM,33.8,33.8,100,30.25,0.2,Calm,Calm,-,N/A,Fog,Fog,0,2012-09-20 04:21:00
12:52 AM,33.1,32.0,96,30.27,0.5,Calm,Calm,-,N/A,Fog,Fog,0,2012-09-20 04:52:00
12:55 AM,33.8,32.0,93,30.25,1.5,Calm,Calm,-,N/A,,Overcast,0,2012-09-20 04:55:00
12:57 AM,33.8,32.0,93,30.25,3.0,Calm,Calm,-,N/A,,Overcast,0,2012-09-20 04:57:00
1:04 AM,33.8,32.0,93,30.25,1.5,Calm,Calm,-,N/A,,Overcast,0,2012-09-20 05:04:00
1:06 AM,33.8,32.0,93,30.25,0.8,Calm,Calm,-,N/A,,Mist,0,2012-09-20 05:06:00
1:15 AM,33.8,32.0,93,30.26,0.2,Calm,Calm,-,N/A,Fog,Fog,0,2012-09-20 05:15:00
1:52 AM,34.0,33.1,96,30.29,0.2,Calm,Calm,-,N/A,Fog,Fog,0,2012-09-20 05:52:00
3:19 AM,33.8,33.8,100,30.27,0.2,Calm,Calm,-,N/A,Fog,Fog,0,2012-09-20 07:19:00
3:52 AM,33.1,33.1,100,30.30,0.2,Calm,Calm,-,N/A,Fog,Fog,0,2012-09-20 07:52:00
4:03 AM,33.8,33.8,100,30.28,0.2,Calm,Calm,-,N/A,Fog,Fog,0,2012-09-20 08:03:00
4:52 AM,34.0,33.1,96,30.31,0.2,Calm,Calm,-,N/A,Fog,Fog,0,2012-09-20 08:52:00
5:18 AM,33.8,32.0,93,30.29,0.2,North,3.5,-,N/A,Fog,Fog,350,2012-09-20 09:18:00
5:52 AM,33.1,33.1,100,30.33,0.2,Calm,Calm,-,N/A,Fog,Fog,0,2012-09-20 09:52:00
6:13 AM,32.0,32.0,100,30.30,0.5,Calm,Calm,-,N/A,Fog,Fog,0,2012-09-20 10:13:00
6:21 AM,33.8,32.0,93,30.30,0.2,Calm,Calm,-,N/A,Fog,Fog,0,2012-09-20 10:21:00
6:40 AM,33.8,32.0,93,30.30,1.5,Calm,Calm,-,N/A,,Overcast,0,2012-09-20 10:40:00
6:42 AM,33.8,32.0,93,30.30,3.0,Calm,Calm,-,N/A,,Overcast,0,2012-09-20 10:42:00
6:52 AM,33.1,32.0,96,30.34,3.0,Calm,Calm,-,N/A,,Overcast,0,2012-09-20 10:52:00
7:20 AM,33.8,32.0,93,30.30,1.8,Calm,Calm,-,N/A,,Overcast,0,2012-09-20 11:20:00
7:24 AM,33.8,32.0,93,30.30,0.8,Calm,Calm,-,N/A,,Overcast,0,2012-09-20 11:24:00
7:35 AM,33.8,33.8,100,30.31,0.2,Calm,Calm,-,N/A,Fog,Fog,0,2012-09-20 11:35:00
7:52 AM,35.1,34.0,96,30.35,0.2,Calm,Calm,-,N/A,Fog,Fog,0,2012-09-20 11:52:00
8:42 AM,37.4,35.6,93,30.31,0.5,Calm,Calm,-,N/A,Fog,Fog,0,2012-09-20 12:42:00
9:36 AM,39.2,37.4,93,30.29,1.2,NNE,3.5,-,N/A,,Overcast,20,2012-09-20 13:36:00
9:47 AM,41.0,39.2,93,30.29,1.8,NNE,3.5,-,N/A,,Overcast,20,2012-09-20 13:47:00
9:52 AM,41.0,39.0,93,30.33,2.0,Calm,Calm,-,N/A,,Overcast,0,2012-09-20 13:52:00
10:03 AM,41.0,39.2,93,30.29,6.0,Calm,Calm,-,N/A,,Overcast,0,2012-09-20 14:03:00
10:35 AM,48.2,42.8,82,30.28,10.0,Calm,Calm,-,N/A,,Scattered Clouds,0,2012-09-20 14:35:00
10:52 AM,50.0,41.0,71,30.29,10.0,Calm,Calm,-,N/A,,Clear,0,2012-09-20 14:52:00
11:52 AM,57.0,37.9,49,30.26,10.0,Variable,3.5,-,N/A,,Clear,0,2012-09-20 15:52:00
12:52 PM,59.0,36.0,42,30.24,10.0,SSW,3.5,-,N/A,,Clear,210,2012-09-20 16:52:00
1:52 PM,62.1,37.9,41,30.20,10.0,ESE,5.8,-,N/A,,Clear,120,2012-09-20 17:52:00
2:52 PM,62.1,39.0,43,30.19,10.0,South,8.1,-,N/A,,Clear,180,2012-09-20 18:52:00
3:52 PM,62.1,39.9,44,30.18,10.0,Variable,5.8,-,N/A,,Clear,0,2012-09-20 19:52:00
4:52 PM,61.0,39.9,46,30.17,10.0,SSE,9.2,-,N/A,,Clear,160,2012-09-20 20:52:00
5:52 PM,59.0,39.9,49,30.17,10.0,South,6.9,-,N/A,,Clear,170,2012-09-20 21:52:00
6:52 PM,54.0,42.1,64,30.18,10.0,South,4.6,-,N/A,,Clear,190,2012-09-20 22:52:00
7:52 PM,44.1,41.0,89,30.19,10.0,Calm,Calm,-,N/A,,Clear,0,2012-09-20 23:52:00
8:52 PM,42.1,39.9,92,30.20,10.0,Calm,Calm,-,N/A,,Clear,0,2012-09-21 00:52:00
9:52 PM,39.0,37.0,93,30.20,10.0,Calm,Calm,-,N/A,,Clear,0,2012-09-21 01:52:00
10:52 PM,36.0,34.0,93,30.19,10.0,Calm,Calm,-,N/A,,Clear,0,2012-09-21 02:52:00
11:35 PM,37.4,35.6,93,30.16,10.0,Calm,Calm,-,N/A,,Scattered Clouds,0,2012-09-21 03:35:00
11:44 PM,37.4,35.6,93,30.16,5.0,Calm,Calm,-,N/A,,Mostly Cloudy,0,2012-09-21 03:44:00
11:52 PM,36.0,35.1,97,30.18,2.5,Calm,Calm,-,N/A,,Mostly Cloudy,0,2012-09-21 03:52:00